TimeCST,TemperatureF,Dew PointF,Humidity,Sea Level PressureIn,VisibilityMPH,Wind Direction,Wind SpeedMPH,Gust SpeedMPH,PrecipitationIn,Events,Conditions,WindDirDegrees,DateUTC
12:53 AM,57.0,52.0,83,29.89,10.0,SE,4.6,-,N/A,,Overcast,130,2014-03-08 06:53:00
1:53 AM,57.9,53.1,84,29.88,10.0,SE,3.5,-,N/A,,Overcast,130,2014-03-08 07:53:00
2:42 AM,59.0,53.1,81,29.88,10.0,Calm,Calm,-,N/A,,Overcast,0,2014-03-08 08:42:00
2:53 AM,59.0,53.1,81,29.87,10.0,SE,3.5,-,N/A,,Overcast,130,2014-03-08 08:53:00
3:53 AM,59.0,54.0,83,29.86,10.0,SE,3.5,-,N/A,,Overcast,140,2014-03-08 09:53:00
4:53 AM,60.1,54.0,80,29.86,10.0,East,3.5,-,N/A,,Overcast,100,2014-03-08 10:53:00
5:53 AM,61.0,55.0,81,29.88,10.0,ESE,4.6,-,N/A,,Overcast,110,2014-03-08 11:53:00
6:53 AM,61.0,55.9,83,29.90,10.0,SE,5.8,-,N/A,,Overcast,130,2014-03-08 12:53:00
7:53 AM,62.1,57.0,84,29.92,10.0,SSE,4.6,-,N/A,,Overcast,150,2014-03-08 13:53:00
8:53 AM,63.0,57.0,81,29.97,10.0,North,5.8,-,N/A,,Overcast,10,2014-03-08 14:53:00
9:11 AM,63.0,57.9,84,29.99,10.0,NE,4.6,-,N/A,,Overcast,50,2014-03-08 15:11:00
9:53 AM,63.0,60.1,90,30.00,5.0,NNE,8.1,-,0.00,Rain,Light Rain,20,2014-03-08 15:53:00
10:53 AM,62.1,60.1,93,30.01,2.0,NNE,6.9,-,0.02,Rain,Light Rain,30,2014-03-08 16:53:00
11:03 AM,62.1,60.1,93,30.02,3.0,NNE,6.9,-,0.00,Rain,Light Rain,30,2014-03-08 17:03:00
11:36 AM,62.1,60.1,93,30.02,5.0,ENE,8.1,-,0.00,,Overcast,60,2014-03-08 17:36:00
11:53 AM,62.1,60.1,93,30.01,4.0,NNE,8.1,-,0.00,Rain,Light Rain,30,2014-03-08 17:53:00
12:53 PM,63.0,60.1,90,30.01,4.0,NNE,9.2,-,0.00,,Overcast,20,2014-03-08 18:53:00
1:06 PM,63.0,60.1,90,30.00,2.0,NNE,9.2,-,0.00,Rain,Light Rain,30,2014-03-08 19:06:00
1:29 PM,62.1,60.1,93,30.00,1.2,NNE,8.1,-,0.01,Rain,Light Rain,30,2014-03-08 19:29:00
1:53 PM,62.1,60.1,93,29.99,1.5,NNE,9.2,-,0.04,Rain,Light Rain,30,2014-03-08 19:53:00
1:58 PM,62.1,60.1,93,29.99,2.0,NNE,6.9,-,0.00,Rain,Light Rain,30,2014-03-08 19:58:00
2:11 PM,62.1,60.1,93,29.99,1.8,NNE,6.9,-,0.00,Rain,Light Rain,30,2014-03-08 20:11:00
2:19 PM,63.0,61.0,93,30.00,2.5,NNE,9.2,-,0.00,Rain,Light Rain,20,2014-03-08 20:19:00
2:26 PM,62.1,60.1,93,30.00,4.0,NNE,9.2,-,0.00,,Overcast,30,2014-03-08 20:26:00
2:44 PM,62.1,60.1,93,29.99,5.0,NNE,9.2,-,0.00,Rain,Light Rain,20,2014-03-08 20:44:00
2:53 PM,62.1,60.1,93,29.99,3.0,NNE,8.1,-,0.00,,Overcast,20,2014-03-08 20:53:00
3:05 PM,62.1,60.1,93,30.00,2.5,North,9.2,-,N/A,,Overcast,10,2014-03-08 21:05:00
3:41 PM,62.1,59.0,90,30.00,3.0,NNE,10.4,-,0.00,Rain,Light Rain,20,2014-03-08 21:41:00
3:53 PM,62.1,59.0,90,30.00,2.5,NNE,11.5,-,0.02,Rain,Light Rain,20,2014-03-08 21:53:00
4:01 PM,60.1,57.0,90,30.01,1.0,North,18.4,26.5,0.05,Rain,Heavy Rain,10,2014-03-08 22:01:00
4:10 PM,57.9,55.0,90,30.02,2.0,North,15.0,25.3,0.06,Rain,Light Rain,10,2014-03-08 22:10:00
4:16 PM,57.9,55.0,90,30.02,3.0,North,19.6,26.5,0.06,Rain,Light Rain,360,2014-03-08 22:16:00
4:23 PM,57.0,54.0,89,30.02,3.0,North,17.3,26.5,0.06,Rain,Light Rain,10,2014-03-08 22:23:00
4:38 PM,57.0,53.1,87,30.03,4.0,North,16.1,23.0,0.06,,Overcast,10,2014-03-08 22:38:00
4:53 PM,55.9,53.1,90,30.03,5.0,North,12.7,-,0.06,Rain,Light Rain,10,2014-03-08 22:53:00
5:35 PM,55.0,48.9,80,30.05,7.0,North,20.7,25.3,0.00,,Overcast,10,2014-03-08 23:35:00
5:53 PM,55.0,48.0,77,30.06,8.0,North,13.8,26.5,0.00,,Overcast,10,2014-03-08 23:53:00
6:53 PM,51.1,46.9,86,30.11,4.0,North,9.2,19.6,0.01,Rain,Light Rain,10,2014-03-09 00:53:00
7:19 PM,50.0,46.0,86,30.12,5.0,North,11.5,-,0.00,Rain,Light Rain,10,2014-03-09 01:19:00
7:53 PM,50.0,45.0,83,30.14,6.0,NNE,10.4,-,0.00,Rain-Thunderstorm,Light Rain,20,2014-03-09 01:53:00
8:26 PM,50.0,45.0,83,30.16,5.0,NNE,10.4,-,0.06,Rain-Thunderstorm,Light Thunderstorms and Rain,20,2014-03-09 02:26:00
8:41 PM,48.9,45.0,86,30.17,7.0,North,11.5,-,0.06,Rain,Light Rain,10,2014-03-09 02:41:00
8:53 PM,50.0,45.0,83,30.18,7.0,North,16.1,21.9,0.06,,Overcast,10,2014-03-09 02:53:00
9:00 PM,50.0,45.0,83,30.19,7.0,NNE,13.8,24.2,N/A,,Overcast,20,2014-03-09 03:00:00
9:53 PM,48.9,44.1,83,30.19,7.0,NNE,12.7,21.9,N/A,,Overcast,20,2014-03-09 03:53:00
10:53 PM,48.0,42.1,80,30.20,8.0,NNE,18.4,29.9,N/A,,Overcast,20,2014-03-09 04:53:00
11:03 PM,48.9,42.1,77,30.21,8.0,North,13.8,27.6,N/A,,Overcast,10,2014-03-09 05:03:00
11:53 PM,48.9,39.9,71,30.20,10.0,NNE,12.7,23.0,N/A,,Overcast,20,2014-03-09 05:53:00